Benton Ridge, OH (45816)

10:50 PM EDT on September 03, 2015 (GMT -0400)
Findlay | | Change Station
CLOSE
Current Station
Airport
Location: Findlay,
Elevation: 810 ft
Nearby Weather Stations

Elev 810 ft 41.01 °N, 83.67 °W | Updated 57 minutes ago

Partly Cloudy
Partly Cloudy
76 °F
Feels Like 76 °F
N
7
Wind Variable Wind from SSE

Today
High -- | Low -- °F
--% Chance of Precip.
Yesterday
High -- | Low -- °F
Precip. -- in
7:03 AM 8:04 PM
Waning Gibbous, 64% visible
Pressure 29.90 in
Visibility 10.0 miles
Clouds Clear
Dew Point 69 °F
Humidity 79%
Rainfall 0.00 in
Snow Depth Not available.
UV 0 out of 12
Pollen 10.00 out of 12
Air Quality Not available.
Flu Activity Not available.
METAR KFDY 040153Z AUTO 16006KT 10SM CLR 24/21 A2993 RMK AO2 LTG DSNT NE SLP125 T02440206
Pressure 29.90 in
Visibility 10.0 miles
Clouds Clear
Dew Point 69 °F
Humidity 79%
Rainfall 0.00 in
Snow Depth Not available.
UV 0 out of 12
Pollen 10.00 out of 12
Air Quality Not available.
Flu Activity Not available.
METAR KFDY 040153Z AUTO 16006KT 10SM CLR 24/21 A2993 RMK AO2 LTG DSNT NE SLP125 T02440206

10-Day Weather Forecast

×

Almanac

Astronomy

Sep. 03, 2015 Rise Set
Actual Time
Civil Twilight
Nautical Twilight
Astronomical Twilight
Moon
Length of Visible Light
Length of Day
Tomorrow will be .
, % of the Moon is Illuminated

Today's Extremes

State Highs State Lows

Community

WunderPhotos

Upload Photos

1,852,106 photos uploaded!

WunderBlogs® & News

Nearby

Air Quality

  Air Quality AQ Index Pollutant
Not available.

Snow Depth

Station Depth Elevation

Earthquake Activity

City Distance Mag. Time & Date
Minimum magnitude displayed is 2.5.

Coastal Water Temperatures

Place Temperature

Stations

Nearby Weather Stations

Station Location Temp. Windchill Dew Point Humidity Wind Precip. Elev Updated Type